RH
14 8 3 4 12 16 35 46 66 70 79 93 62 77 96 70 54 81 66 97 81 96 96 96 91 81 79 74 73 74 74 72 68 67 60 54 42 38 37 66 65 66 62 61 58 51 38 32 21
12 4 3 10 17 40 60 68 58 65 95 76 74 73 76 89 84 50 82 69 77 93 86 92 96 95 93 91 88 80 77 71 68 64 64 56 37 37 34 36 54 64 72 70 68 56 43 30 23
7 3 6 15 50 73 72 86 91 58 85 44 67 70 56 94 90 79 91 100 80 92 95 87 87 90 92 93 96 88 76 72 73 68 68 49 33 40 41 40 48 61 88 81 82 65 46 26 23
4 4 15 33 61 59 76 82 91 80 54 32 31 39 36 96 63 95 96 81 82 79 65 97 90 93 98 94 96 91 84 85 79 80 66 42 33 33 46 56 68 85 89 87 87 71 51 24 23
3 10 34 93 93 89 67 56 42 27 26 24 35 33 50 96 78 34 38 71 57 61 74 85 93 95 91 92 97 100 100 95 85 72 65 58 45 37 47 66 92 95 91 90 92 73 46 30 21
3 15 78 92 92 88 76 44 16 15 14 15 22 86 32 32 55 44 50 56 53 92 94 96 95 97 92 93 90 87 73 63 56 53 49 57 60 56 55 74 93 94 94 93 92 77 53 34 25
6 22 84 83 73 60 55 67 72 84 62 89 93 43 91 75 76 64 48 46 48 76 66 82 88 93 88 76 76 70 75 88 92 78 99 84 85 62 64 91 95 89 93 92 86 75 72 34 34
11 20 80 91 80 50 54 87 48 38 32 61 86 38 42 55 58 62 47 43 47 72 89 91 88 94 96 86 81 84 72 88 100 90 91 87 95 90 77 93 92 81 84 87 90 89 36 28 35
12 44 95 96 95 65 99 94 34 80 48 98 57 98 51 66 97 93 46 41 55 69 97 88 90 96 91 96 96 92 89 97 97 97 95 83 97 95 96 97 91 90 89 92 65 29 30 36 44
11 51 82 100 92 52 58 47 49 79 92 47 95 46 30 63 76 86 53 51 67 63 78 80 91 95 82 84 96 96 96 81 87 92 94 96 96 96 96 96 93 96 95 40 30 44 47 49 42
14 63 98 84 68 51 44 32 75 83 50 67 66 74 69 83 62 60 46 43 53 55 62 59 84 76 80 82 78 94 90 92 94 95 96 97 96 97 96 95 96 96 74 47 49 47 50 55 18
34 42 57 59 53 43 50 75 58 71 66 54 46 52 81 80 67 71 61 54 51 33 30 39 46 58 82 60 70 64 98 92 94 97 96 97 97 96 94 96 95 94 71 58 59 55 36 15 15
57 22 61 60 37 43 62 75 93 67 84 54 42 45 60 64 79 81 76 65 58 54 42 46 61 70 70 72 70 77 95 97 97 97 97 96 97 96 96 96 94 77 60 62 70 65 15 14 11
42 51 10 31 44 54 68 50 92 96 100 58 42 44 55 60 63 72 86 75 55 52 47 64 74 84 68 64 97 97 96 97 90 94 96 97 97 96 96 95 90 73 73 74 74 41 14 12 11
14 8 11 93 65 62 60 76 93 85 69 56 45 40 47 54 63 74 85 92 75 62 54 59 66 69 98 100 96 97 96 90 96 97 96 97 96 96 93 89 80 60 36 21 17 14 13 12 12
12 8 40 66 88 98 68 53 91 59 49 56 46 41 47 67 83 90 95 97 99 94 93 98 92 96 82 96 96 96 96 96 97 95 98 97 95 87 93 77 81 82 22 16 16 15 15 14 13
44 55 93 81 84 83 62 87 89 71 51 61 44 45 62 60 84 80 77 64 64 86 90 89 92 95 98 98 97 96 94 96 98 97 95 93 86 95 84 90 90 84 44 17 18 17 15 14 13
100 99 97 80 89 84 90 65 62 90 69 67 53 39 50 44 28 34 56 45 49 41 31 48 82 85 94 94 90 85 82 83 92 88 92 94 95 97 91 73 71 38 18 20 18 16 14 13 22
50 78 82 99 85 79 68 99 92 74 77 53 54 40 27 30 39 49 51 41 42 42 34 27 24 59 42 23 24 37 42 44 58 83 85 90 97 98 74 52 28 20 22 19 16 14 14 38 54
33 21 55 100 100 63 69 72 74 70 96 60 30 22 23 22 20 26 29 26 23 31 28 20 15 18 48 37 24 24 24 29 33 39 63 77 98 83 22 29 40 22 19 18 24 35 42 53 65
23 22 68 92 97 76 40 58 77 62 100 61 48 32 25 20 21 17 18 17 17 17 14 14 13 13 19 21 32 44 39 34 39 39 43 69 70 56 24 24 24 28 31 57 63 57 57 62 71
26 54 66 74 64 73 86 45 71 62 98 67 52 34 33 17 18 28 22 17 22 18 15 15 15 14 17 34 43 44 38 48 33 33 38 30 26 40 46 40 35 41 50 47 64 72 86 91 72
34 41 59 27 77 69 100 72 89 78 86 75 56 61 50 28 18 20 26 29 29 26 21 21 21 20 20 38 52 69 71 64 55 34 25 22 24 30 34 42 49 42 47 45 72 87 83 94 89
34 35 45 41 50 66 73 99 61 97 94 96 98 68 91 57 19 31 63 62 74 84 88 49 44 41 32 31 36 57 70 76 66 88 61 33 40 50 51 43 42 44 49 74 80 89 98 98 92
26 32 36 45 40 49 80 94 93 69 96 94 85 84 66 85 78 43 30 49 48 76 87 74 78 65 51 47 51 45 64 97 80 71 87 85 63 79 60 62 67 76 80 92 98 97 87 85 88
24 32 31 56 97 86 67 84 99 64 94 66 55 54 57 39 42 47 46 25 69 60 55 47 50 46 35 38 44 88 97 97 98 95 44 96 78 84 64 80 90 95 93 94 93 80 84 80 99
42 24 39 90 78 94 80 66 54 40 60 53 46 47 48 63 57 35 49 58 28 52 32 19 26 29 32 46 94 78 66 72 94 95 87 67 42 64 48 96 96 92 78 47 66 75 62 58 73
17 64 67 58 71 82 87 57 98 92 77 58 54 47 50 46 42 43 53 66 77 58 52 23 19 22 24 36 59 45 44 56 56 99 35 30 45 55 85 67 72 45 27 26 51 57 98 98 98
20 24 58 69 64 54 60 85 93 94 99 48 58 47 50 49 46 42 54 69 71 83 72 57 19 20 21 57 90 94 84 47 38 35 47 45 51 49 43 40 31 24 20 12 15 16 70 44 100
24 23 30 46 65 57 56 64 97 86 99 90 58 56 56 37 32 40 53 96 100 91 79 65 30 20 58 79 99 93 71 46 48 81 68 56 33 48 56 44 19 10 9 11 12 13 14 16 17
Wind_Speed
52 55 52 32 21 17 11 16 10 9 33 36 39 46 34 32 34 50 61 51 14 10 29 32 34 29 28 29 29 30 29 29 27 25 22 21 15 17 20 21 18 18 14 14 15 15 14 15 12
52 53 37 17 13 6 6 17 14 31 26 32 31 40 46 42 35 55 57 52 49 46 36 30 34 31 30 29 26 27 28 28 29 26 24 21 17 18 20 22 21 22 19 17 16 16 16 16 15
53 44 20 11 7 7 7 24 22 30 28 29 29 32 31 35 29 39 35 39 46 25 19 35 36 32 28 31 24 25 26 27 28 29 23 21 20 20 20 21 22 22 23 20 17 17 16 18 15
48 24 10 8 12 7 15 22 15 22 26 24 29 38 45 32 31 36 37 18 31 18 24 33 32 28 33 30 24 26 29 28 29 26 24 23 23 22 22 21 21 22 20 19 19 17 18 18 17
35 13 14 11 14 13 19 25 31 28 19 25 31 43 39 11 26 28 27 24 22 22 22 17 27 15 19 21 27 29 29 29 30 29 29 28 26 26 26 20 19 22 22 19 19 19 19 21 19
23 8 10 12 16 7 21 28 26 30 30 24 29 26 33 33 18 24 26 27 21 24 17 15 19 20 20 24 26 27 27 29 30 31 32 31 29 30 29 23 19 21 20 18 18 19 19 19 12
10 7 1 11 8 22 26 22 16 21 28 22 20 31 26 19 19 20 27 29 25 23 22 20 25 22 25 28 30 32 30 29 28 32 32 31 29 29 28 26 22 22 18 18 18 19 13 15 12
10 4 10 6 13 23 20 15 21 13 23 30 23 26 27 34 21 22 26 28 26 23 23 21 21 23 30 30 36 35 33 31 32 28 35 37 36 29 24 26 25 23 18 17 17 12 11 10 11
6 10 7 4 12 26 21 13 13 12 14 15 23 15 22 16 18 22 24 27 27 26 24 21 25 20 30 22 32 37 30 22 31 38 41 36 38 30 26 29 24 23 19 13 7 10 10 11 12
2 2 1 12 22 27 25 22 17 14 14 20 22 25 24 16 18 25 25 26 28 28 24 23 28 25 22 22 23 14 33 27 31 36 28 34 36 35 30 32 27 20 14 9 10 7 10 10 10
6 3 12 14 22 18 12 14 18 12 16 16 15 13 26 21 22 24 25 24 28 26 26 26 27 29 30 22 21 23 23 30 31 25 33 34 43 37 30 29 28 18 13 11 8 8 12 11 8
14 4 12 13 19 12 17 17 7 11 14 17 18 15 12 19 22 26 26 26 26 25 26 26 25 34 32 32 30 27 26 36 45 35 31 34 37 34 32 20 22 17 13 11 10 12 12 8 8
8 5 9 16 13 10 16 9 8 13 9 12 20 21 12 13 16 17 23 26 27 26 28 29 29 32 33 28 27 27 36 24 23 27 28 31 34 28 24 22 16 13 12 11 13 12 10 9 10
9 11 10 10 10 9 13 16 21 16 5 11 16 17 10 11 11 15 18 24 26 27 29 26 23 23 24 27 32 35 28 27 31 21 23 31 28 22 23 17 13 12 10 11 12 12 11 11 12
8 6 7 8 7 9 12 19 32 16 7 12 13 16 11 8 10 11 13 17 19 16 18 25 28 27 26 23 23 27 24 24 21 29 28 25 23 23 20 15 13 8 7 11 10 11 12 13 16
6 3 5 14 19 16 15 14 12 8 8 11 12 13 12 10 9 9 7 2 2 7 10 18 22 25 26 24 27 27 25 25 19 13 18 23 20 17 14 13 12 6 9 10 11 12 15 17 19
11 12 8 23 19 18 19 18 20 7 17 15 11 10 7 8 6 7 11 14 16 17 15 19 13 9 16 18 15 10 11 15 19 23 21 17 11 10 10 10 11 12 13 12 13 16 18 20 23
3 13 12 16 26 22 16 23 21 20 18 17 9 7 5 6 6 5 10 10 11 13 15 18 17 17 19 19 19 17 17 15 13 11 12 11 10 10 9 10 11 12 13 13 16 19 22 25 27
13 24 14 14 26 25 22 13 25 17 4 14 7 2 5 5 4 5 6 9 10 11 12 12 11 11 9 9 10 11 10 7 6 6 7 7 8 8 9 10 13 12 14 15 20 25 26 29 29
10 11 18 10 16 25 20 12 19 18 13 13 6 4 4 3 2 2 3 5 8 12 11 11 11 11 9 8 7 6 2 4 6 8 9 11 10 10 11 11 13 13 16 21 25 30 33 35 35
6 6 23 21 21 14 11 13 13 21 12 16 13 8 6 6 4 3 3 3 4 4 6 7 9 9 8 7 7 7 6 3 4 5 8 9 9 10 11 13 14 18 24 26 29 31 34 35 35
7 4 12 17 25 11 11 12 15 14 19 22 13 13 9 9 6 5 5 5 6 6 7 8 8 9 8 8 8 7 5 4 5 6 7 9 11 11 13 16 19 23 27 29 32 34 36 36 36
11 10 9 11 23 19 16 17 14 18 20 20 13 12 14 13 9 4 5 5 8 10 10 11 13 13 12 11 10 9 9 8 8 12 13 14 14 15 17 20 23 27 29 33 33 35 39 39 42
16 11 10 11 11 11 15 20 15 16 11 17 19 17 16 16 12 9 7 5 7 10 12 13 12 14 14 14 16 15 17 13 10 11 15 17 16 18 21 24 26 29 31 33 34 38 42 41 40
20 15 13 14 9 4 10 15 8 21 21 11 7 20 17 13 17 13 12 13 16 12 13 12 11 12 14 15 17 21 18 15 14 13 14 21 19 18 23 28 30 31 33 33 35 32 37 38 40
21 20 17 11 17 9 15 14 15 20 21 10 12 17 20 15 17 17 17 14 11 13 13 12 12 15 15 17 18 21 14 17 23 4 5 12 13 20 25 31 32 33 33 34 34 38 40 38 44
23 24 15 14 18 20 15 8 22 19 20 14 16 17 17 21 23 21 19 20 19 16 15 13 14 15 19 16 16 14 16 19 5 14 16 19 22 26 29 30 33 34 33 38 39 39 41 42 44
27 18 20 25 25 22 18 12 14 23 18 22 18 20 21 19 20 23 26 24 23 24 19 17 15 17 18 15 14 15 18 16 16 20 22 24 28 31 31 33 34 37 38 40 40 42 45 50 48
29 29 29 27 27 25 19 17 27 12 16 25 24 26 23 21 17 22 23 27 27 27 28 23 19 21 24 22 26 25 24 23 24 25 26 29 30 33 36 36 36 39 41 42 42 42 44 51 45
28 28 30 29 26 26 23 28 16 28 12 23 27 24 22 23 17 19 22 23 28 27 31 26 22 25 28 30 32 26 28 29 30 31 32 34 36 36 39 39 40 41 41 43 44 47 50 52 57
Wind_Direction
326 331 328 312 307 306 2 359 281 217 265 244 227 229 224 237 210 218 230 231 250 166 176 202 219 223 229 233 241 247 250 252 253 252 258 268 269 264 258 252 256 255 247 250 255 260 266 268 273
333 333 325 313 309 316 321 270 236 249 239 251 232 236 235 230 231 217 239 245 253 257 227 213 216 218 226 235 241 245 247 248 251 256 262 271 269 260 255 256 253 253 245 248 260 262 264 265 268
337 334 327 317 356 323 294 273 262 231 261 254 247 259 264 241 266 244 250 251 255 270 229 223 233 215 223 229 232 244 246 249 252 255 258 262 259 256 256 259 255 251 245 250 257 259 261 264 269
339 335 334 356 13 316 267 289 280 253 242 250 249 257 261 248 254 245 281 262 255 296 293 230 221 222 219 218 234 242 248 252 257 261 261 257 257 253 252 255 255 247 247 251 256 263 261 263 266
343 343 41 347 303 270 261 256 254 262 264 261 240 247 245 268 244 253 262 267 262 271 271 269 222 221 232 223 237 248 254 259 264 265 264 259 257 250 246 250 253 247 248 253 257 261 263 266 269
342 0 50 321 310 301 288 287 245 251 245 250 248 258 256 269 261 264 268 264 256 257 262 248 244 242 241 240 247 252 258 257 258 259 257 254 257 249 244 243 256 254 251 254 260 256 263 267 265
4 11 72 315 281 271 280 288 318 276 234 238 236 246 243 255 257 255 257 261 258 256 258 262 262 252 243 248 247 249 250 252 257 254 248 263 250 244 253 243 258 260 252 255 260 255 262 262 267
19 40 78 291 289 278 289 283 281 270 263 291 232 250 264 256 248 249 251 258 255 252 256 250 250 256 235 247 233 237 236 245 242 253 243 252 243 240 240 253 256 262 256 252 255 250 243 252 273
22 78 359 282 267 274 288 313 291 247 282 277 253 286 245 250 257 257 256 256 254 248 262 263 262 262 268 253 232 232 230 231 258 255 255 254 249 244 248 247 251 255 250 245 214 220 243 261 269
20 85 104 279 258 267 277 286 283 282 261 284 287 274 263 249 247 253 253 252 258 258 259 259 267 284 282 285 285 266 234 254 265 253 255 262 248 247 241 248 243 241 214 191 207 231 250 257 269
342 211 263 257 279 250 267 272 290 277 286 313 328 284 259 248 242 247 248 250 262 268 265 265 269 275 276 273 277 294 261 260 264 258 273 272 258 259 235 236 248 208 167 186 215 234 254 251 248
324 236 273 260 265 280 276 312 336 309 332 323 345 340 292 254 253 252 248 250 255 260 259 261 265 266 270 272 268 265 260 252 268 270 272 281 266 240 241 239 205 158 182 198 228 240 253 227 244
327 257 247 257 265 293 288 289 264 290 320 328 327 331 296 269 264 254 237 249 247 252 251 250 259 257 255 257 250 266 253 252 281 267 267 284 246 241 231 211 160 175 198 216 227 231 237 236 266
283 280 269 244 288 303 286 268 256 205 302 336 335 333 305 278 260 266 264 265 265 258 253 248 251 252 252 248 265 242 219 252 262 261 266 252 242 212 194 151 169 201 219 232 222 239 227 255 281
306 262 233 267 293 303 286 304 309 290 10 349 341 335 311 290 278 290 294 295 298 284 257 252 244 249 247 236 247 228 242 246 253 262 247 236 205 183 143 174 170 183 223 218 204 225 249 272 284
321 265 239 288 309 273 275 314 333 315 356 359 334 328 316 333 341 327 343 332 1 296 249 247 245 239 249 247 239 255 255 248 241 240 208 182 152 134 166 181 187 196 219 209 224 249 267 281 296
12 12 299 278 291 310 289 303 326 354 23 7 321 327 339 20 48 55 45 53 39 49 66 76 86 194 203 212 201 193 149 133 139 148 139 129 136 175 197 209 212 223 232 232 252 266 282 292 295
286 282 275 306 294 291 296 294 300 323 356 352 344 310 358 0 11 7 47 28 22 38 45 45 52 62 69 80 93 96 103 107 122 131 140 166 184 200 216 223 227 221 229 251 266 282 290 293 297
231 233 215 271 266 273 281 285 296 308 334 354 352 298 343 343 1 8 59 16 5 18 24 36 50 67 62 64 73 94 95 117 156 178 187 207 223 218 223 222 220 229 254 275 285 288 290 296 298
265 243 199 242 260 274 264 254 270 302 221 0 291 288 319 310 308 328 325 351 355 352 5 9 16 25 35 34 56 72 124 185 197 211 210 220 223 228 210 228 251 267 279 288 291 291 292 294 297
264 246 194 233 240 262 261 229 256 284 318 318 292 276 293 311 302 286 301 329 326 338 344 356 4 13 17 10 16 22 21 354 269 239 224 229 229 220 230 249 271 286 286 289 294 294 297 298 300
245 220 231 239 242 259 249 243 253 264 258 276 304 298 308 314 301 283 274 278 298 323 324 329 337 343 357 7 9 11 346 317 287 264 246 242 235 243 256 270 281 283 290 294 291 294 297 299 297
221 219 239 241 231 227 257 262 222 252 261 281 316 310 314 310 314 278 285 303 332 329 316 316 318 322 326 320 320 321 323 315 271 249 244 247 257 262 273 282 288 293 297 299 297 293 295 297 298
232 228 245 250 258 249 223 268 260 272 239 238 267 308 286 309 302 295 287 289 323 312 320 303 310 307 298 292 294 299 304 298 271 259 254 250 258 274 281 286 291 294 295 294 295 295 291 295 298
228 227 241 244 248 96 183 240 264 261 280 209 236 273 278 289 294 293 283 283 297 301 295 302 298 299 295 299 292 298 298 296 276 270 274 273 257 256 281 288 290 295 299 296 296 291 299 298 295
233 234 241 244 250 227 238 248 256 272 282 222 239 254 273 287 286 289 294 281 282 289 287 292 294 292 283 282 300 292 284 289 263 258 339 289 299 282 277 289 292 292 296 298 296 296 296 299 295
236 226 225 228 237 239 247 265 226 256 265 275 274 271 268 270 288 298 283 285 287 285 289 288 277 274 276 284 291 287 282 318 289 308 298 298 295 293 296 295 299 304 303 301 296 296 298 297 295
228 225 224 220 236 254 247 250 284 246 260 268 270 270 273 277 270 270 275 276 280 283 279 282 279 269 266 268 276 278 285 292 280 281 287 296 299 298 301 303 300 301 303 301 297 298 297 296 297
226 226 223 226 236 241 235 215 230 217 234 257 263 270 270 278 277 273 265 264 269 272 281 280 271 271 274 272 275 279 280 280 283 287 293 294 295 297 301 301 299 301 299 299 297 297 288 296 292
235 230 237 236 239 243 243 235 225 245 221 260 267 263 271 284 288 268 259 259 261 272 279 286 262 265 268 271 267 271 271 282 285 290 294 298 299 300 301 300 298 298 298 298 298 297 296 294 291